Theta_e
296 296 294 295 295 294 293 292 291 291 291 291 290 289 289 288 287 286 287 287 286 285 284 283 282 281 281 281 281 280 280 281 281 281 280 280 281 281 280 280 280 280 281 280 279 281 279 278 278 278 278 279 278 277 278 278 278 278 278 279 278 277 276 278 278 278 276 275 276 276 277 278 280 281 279 278 278 278 278 280 280 280 280 282 282
293 292 293 293 293 294 292 291 291 289 289 289 289 289 289 288 287 286 286 286 285 285 284 284 283 282 281 280 281 280 280 280 279 280 280 281 281 281 280 280 280 280 281 280 280 279 278 277 277 277 277 277 278 278 278 281 279 278 278 276 277 276 275 277 277 277 275 273 273 273 274 276 278 278 278 278 278 279 280 279 279 278 278 279 280
290 291 292 291 294 294 291 292 291 290 290 290 289 290 289 288 288 287 287 286 286 286 285 283 283 283 282 282 281 280 282 282 281 281 281 280 280 280 280 280 280 279 280 281 279 279 278 277 277 277 277 278 278 277 277 277 277 277 277 275 274 276 276 278 277 277 273 274 274 273 271 271 275 275 276 278 279 278 278 277 279 277 277 277 279
288 289 289 289 290 290 291 291 291 292 290 289 288 288 288 287 287 287 286 286 285 285 287 285 284 284 283 283 283 282 281 283 282 280 280 279 279 279 279 279 280 279 279 279 280 279 278 277 277 276 276 277 277 276 276 276 276 276 276 277 276 273 275 275 278 277 276 274 269 271 270 271 269 271 272 274 276 276 277 277 278 277 277 276 278
288 288 289 289 289 290 291 291 291 291 290 288 289 288 289 287 288 287 286 286 285 286 285 284 284 282 282 282 282 281 280 279 279 278 278 279 279 278 278 279 279 279 279 279 280 278 278 277 277 276 276 276 277 276 276 276 276 276 277 276 276 274 273 274 276 277 276 277 273 271 267 267 269 271 272 272 275 274 275 275 278 277 276 276 277
288 288 289 289 290 290 290 290 290 289 288 289 289 290 289 288 288 287 286 286 285 285 285 284 282 281 279 279 278 278 277 278 277 278 278 277 277 279 279 279 279 279 279 279 279 279 277 277 277 277 277 277 277 276 276 276 276 276 276 276 275 276 275 274 273 277 277 277 276 275 274 269 268 270 271 267 274 274 275 276 275 275 275 276 276
289 289 289 288 289 289 289 289 290 289 289 290 289 289 289 288 287 287 286 285 286 284 285 284 281 280 279 279 279 278 278 279 278 279 278 278 278 277 278 278 278 278 278 278 278 279 278 277 277 277 277 277 278 277 276 275 276 276 276 276 275 277 275 273 273 273 274 275 276 275 275 276 273 271 267 270 268 271 273 273 273 274 274 274 275
288 288 288 289 289 289 288 289 289 289 289 289 288 289 288 287 288 288 286 286 285 285 284 283 281 280 279 279 280 279 279 279 280 279 280 280 277 278 277 277 278 278 277 278 278 278 278 278 278 277 277 277 278 277 277 276 276 276 277 276 276 276 275 274 273 273 272 272 275 274 274 275 274 273 272 270 268 267 269 272 273 274 274 274 275
288 287 287 288 288 288 288 288 289 290 290 288 288 288 288 288 287 287 287 285 284 285 284 282 282 281 280 280 278 280 279 280 280 281 280 280 279 279 277 276 276 277 277 277 277 277 279 278 278 277 277 277 278 277 277 277 276 275 275 275 275 275 275 275 273 273 273 272 272 272 273 273 273 273 273 273 269 266 268 269 270 272 273 273 274
288 288 288 288 288 289 289 289 289 288 289 290 288 288 288 287 287 287 285 285 285 283 283 282 281 282 280 279 279 279 279 279 279 279 278 278 278 278 277 276 275 276 276 277 276 277 277 277 277 277 277 277 278 277 277 276 276 275 275 275 275 274 275 275 274 273 273 273 273 273 271 271 270 270 270 270 271 271 268 268 270 270 270 272 274
287 288 288 288 289 289 289 288 288 288 288 288 288 288 288 287 286 285 285 284 284 283 282 283 282 281 280 280 279 279 279 279 278 278 278 277 278 278 277 276 276 276 276 276 276 276 277 277 277 276 277 277 277 277 276 276 276 276 275 275 275 274 274 275 276 275 274 273 273 272 272 272 271 269 270 271 271 269 269 269 270 271 270 270 271
286 287 287 288 288 288 288 287 287 287 287 287 286 287 286 286 286 285 284 284 283 283 282 282 282 282 280 280 279 279 279 279 278 277 278 277 278 278 278 276 276 276 275 275 275 275 276 276 277 277 277 276 276 276 276 276 276 276 275 275 274 274 274 275 274 273 273 273 273 273 272 272 273 271 272 272 271 271 271 269 269 269 270 270 273
286 286 287 286 285 286 286 286 285 285 285 286 286 285 284 284 284 284 284 284 284 282 282 281 281 281 281 280 280 280 279 279 278 278 278 277 277 277 277 277 277 276 275 275 275 275 275 275 275 276 276 276 276 276 276 276 276 275 275 275 274 274 274 274 274 273 273 273 273 273 272 272 272 273 273 272 270 270 269 268 268 270 268 270 270
284 285 285 284 285 285 285 285 285 284 284 284 284 284 283 284 284 283 284 284 283 283 282 281 281 281 280 281 280 280 279 279 278 278 278 278 277 277 277 277 277 277 276 275 275 275 275 275 275 275 276 276 276 276 276 276 276 275 275 274 274 274 274 274 274 273 273 273 274 272 272 272 272 273 272 272 271 270 268 268 266 269 269 268 270
285 285 285 286 286 286 284 284 284 283 284 284 283 284 284 284 284 284 284 283 282 283 282 282 282 281 280 281 281 280 280 279 278 278 278 278 278 278 278 277 277 277 277 275 275 275 275 275 275 275 275 275 276 275 276 275 275 275 275 274 274 274 273 274 273 273 272 272 272 272 272 272 272 272 272 272 272 270 269 268 267 265 266 267 267
285 285 285 286 286 285 285 284 284 284 284 284 284 285 285 285 285 285 285 284 285 284 282 282 282 282 281 281 281 281 281 280 279 279 279 278 278 278 278 277 277 277 277 275 274 274 275 275 275 275 275 275 275 275 275 275 275 274 274 274 274 275 273 272 273 273 272 272 272 272 271 271 272 272 272 271 271 272 271 269 268 266 264 264 266
285 285 285 285 285 284 285 285 285 285 285 285 285 286 285 285 285 285 285 285 285 285 284 282 282 281 281 281 281 280 280 279 279 279 279 279 278 277 277 277 277 277 276 275 274 274 274 274 275 275 275 275 275 275 275 275 274 274 274 274 273 273 273 272 272 272 273 273 272 272 271 271 271 272 272 272 272 271 270 270 270 269 267 265 263
286 286 285 285 285 285 285 285 284 285 285 285 285 285 285 285 285 285 285 284 285 284 284 283 282 281 281 281 281 281 281 280 280 279 279 279 279 278 277 276 276 277 276 275 275 274 274 275 274 274 275 275 274 274 274 274 274 274 274 274 273 273 273 272 272 272 272 273 273 272 271 270 271 271 271 271 270 270 270 269 269 269 269 266 264
285 284 284 284 284 284 284 284 284 285 285 285 285 285 285 285 285 285 284 285 285 285 285 284 284 285 285 283 282 281 281 282 281 279 278 278 279 278 276 276 276 276 275 274 274 274 274 273 274 274 274 274 274 274 274 274 274 273 273 273 273 273 272 272 272 272 272 272 272 271 271 271 271 270 270 270 271 271 269 269 268 268 267 267 267
284 283 283 284 284 284 284 284 283 284 284 284 284 284 283 284 284 284 284 285 285 285 285 284 285 285 284 283 282 282 281 281 280 280 279 278 278 277 276 276 276 276 275 274 274 273 273 273 273 273 273 274 274 274 274 273 273 273 273 272 272 272 272 271 271 272 272 272 271 271 271 271 271 270 270 270 270 270 270 268 268 267 267 268 268
283 283 283 283 283 283 283 283 283 283 283 283 283 283 283 283 283 283 283 283 283 284 285 284 285 285 284 284 283 281 281 282 281 280 280 279 279 278 277 277 276 276 275 274 273 273 273 273 273 273 273 273 273 273 273 273 272 272 272 272 272 272 271 271 271 271 272 272 271 271 271 271 272 270 269 270 270 270 269 269 269 268 267 266 266
282 283 283 283 282 282 282 283 283 283 282 282 283 283 282 282 283 283 283 283 283 283 284 284 284 284 283 283 283 282 282 282 282 282 281 281 280 278 277 277 277 277 277 275 274 273 273 272 272 272 273 273 273 273 273 272 272 272 271 272 271 271 271 270 270 270 271 271 271 270 270 271 271 270 269 269 270 270 269 269 268 268 267 266 267
283 282 282 282 282 282 282 282 282 282 282 282 282 282 282 281 281 281 281 281 282 282 282 283 283 283 283 283 283 282 282 282 282 281 281 281 281 278 277 277 277 277 277 275 273 273 272 272 272 272 273 273 272 272 272 272 272 271 271 271 271 271 270 269 269 270 270 271 271 270 270 271 271 269 269 269 269 269 269 269 268 268 267 267 268
282 282 283 283 282 282 282 281 281 281 281 280 280 281 280 280 279 279 280 280 280 281 282 282 282 282 282 282 282 282 282 282 281 281 280 280 277 277 278 278 277 277 276 275 273 273 272 272 272 272 272 272 272 272 272 272 271 271 271 271 271 270 270 270 270 270 270 270 270 270 270 270 270 269 269 269 269 268 269 269 268 268 268 268 268
282 282 282 282 281 280 280 281 281 280 280 279 279 279 279 278 279 278 278 279 279 280 281 281 281 281 280 281 281 281 280 280 280 280 279 277 277 277 277 277 277 276 275 274 273 272 272 272 271 272 272 272 272 272 271 271 271 271 271 271 270 270 270 270 270 270 271 270 270 270 270 270 270 268 269 269 269 268 269 269 268 268 268 268 267
282 282 281 280 280 280 280 280 280 279 279 278 278 278 278 278 278 277 277 277 278 279 279 278 278 278 278 278 278 278 279 279 280 279 277 277 277 277 276 276 276 275 275 274 273 272 272 271 272 272 272 272 272 272 271 271 271 271 271 270 270 270 270 269 269 269 270 270 270 270 270 270 269 268 268 269 269 268 269 269 268 268 268 267 266
281 281 280 280 279 279 279 279 279 278 278 277 277 276 276 276 276 276 276 277 277 277 277 276 276 276 276 276 277 278 278 279 279 278 278 277 277 276 276 275 275 275 274 273 272 271 272 272 272 272 272 272 271 271 271 271 270 270 270 270 269 269 269 269 269 269 269 269 269 269 270 270 269 269 268 268 268 268 268 268 268 267 266 265 266
280 280 279 278 278 279 278 278 277 277 277 276 276 275 275 275 275 275 276 275 275 275 275 275 275 275 275 276 277 277 277 278 278 277 277 277 276 276 275 275 275 274 273 272 271 271 271 271 271 272 272 272 271 271 270 270 270 270 269 269 269 269 268 268 269 269 268 268 268 269 270 270 270 270 269 268 267 267 267 267 267 266 266 266 264
279 278 278 278 278 277 277 276 276 275 274 274 274 275 275 274 274 274 275 274 274 274 273 274 274 274 275 276 275 275 275 276 276 276 277 277 276 275 275 274 274 273 273 272 271 271 271 271 271 271 271 271 270 270 270 270 269 269 269 269 269 268 268 268 268 268 268 268 268 269 270 270 271 272 272 271 270 270 266 266 266 266 265 266 265
278 278 278 277 277 276 275 274 274 273 273 273 273 273 272 272 272 273 273 272 272 272 272 273 273 274 275 275 274 274 274 274 274 275 276 276 276 275 274 273 272 272 272 271 271 271 271 270 270 270 270 270 270 269 271 273 272 269 268 268 268 268 268 267 267 267 267 268 268 268 269 271 271 272 272 272 273 273 273 269 266 265 266 266 266
277 278 277 276 275 274 273 273 273 273 272 272 271 271 271 272 273 272 271 271 271 271 272 272 273 274 274 273 271 270 269 269 271 272 273 273 273 274 273 272 271 271 271 271 271 270 270 270 270 269 269 269 269 269 272 274 274 274 270 268 267 267 267 267 266 266 266 267 268 268 268 269 270 271 271 272 273 273 273 274 273 272 271 267 266
276 276 275 274 273 272 272 272 272 272 271 270 270 270 271 271 271 270 269 270 270 271 271 272 273 272 270 268 268 268 268 268 269 269 270 271 272 272 271 271 270 270 270 271 270 270 270 270 269 269 268 268 268 271 273 274 274 275 274 268 267 266 266 266 266 266 266 267 267 267 268 268 268 268 269 270 271 273 273 274 274 274 273 274 273
274 274 273 273 272 271 271 271 271 271 270 269 270 270 270 270 268 268 269 269 270 270 270 269 269 268 267 267 267 266 265 265 266 267 269 270 270 270 270 270 269 269 269 269 270 270 269 269 268 267 267 267 267 271 273 274 274 274 275 272 266 266 266 265 265 265 266 266 266 267 267 268 268 269 269 269 269 269 272 273 274 274 274 274 274
273 273 272 272 271 271 271 271 270 270 269 270 271 270 269 268 267 268 268 268 269 268 267 266 266 266 266 265 264 264 263 264 266 267 267 266 266 267 269 269 269 269 269 269 269 269 268 268 267 266 266 267 266 270 273 273 274 274 274 272 266 266 265 266 265 265 265 266 266 266 266 267 268 268 268 269 269 269 269 271 272 272 272 273 275
272 272 271 270 270 269 269 269 269 269 269 269 269 268 266 266 267 267 268 268 267 266 264 264 263 263 264 263 263 263 263 264 266 266 265 265 266 267 268 268 268 268 268 268 268 268 267 267 267 266 266 266 266 270 272 273 273 274 274 273 267 266 266 265 266 266 266 266 266 266 266 266 268 268 268 269 268 269 269 269 270 271 272 273 273
271 270 270 269 269 268 268 269 269 268 268 268 267 266 265 265 266 267 267 266 264 263 262 262 261 261 261 262 262 262 263 263 264 264 264 264 265 266 267 268 268 268 269 268 268 268 267 266 266 266 265 265 265 271 272 272 273 273 274 271 270 268 265 265 266 266 266 266 266 266 266 266 267 269 270 273 272 270 269 269 269 270 271 272 273
270 270 269 269 269 268 269 269 268 268 267 266 265 265 264 264 265 266 264 263 262 261 261 261 260 260 260 260 261 261 261 261 262 262 263 263 264 266 266 267 267 268 268 268 267 266 267 266 266 265 264 264 264 268 271 272 272 273 272 269 268 268 267 266 265 266 266 266 267 267 267 267 267 268 271 273 274 273 270 269 269 269 270 271 271
270 269 269 269 268 268 268 267 267 266 266 265 264 264 264 264 264 263 262 261 260 260 260 260 259 259 259 260 260 260 260 260 261 261 261 262 263 264 264 266 267 267 267 267 266 266 266 266 265 264 264 264 264 266 270 271 272 272 271 268 267 267 266 266 267 267 267 267 268 270 269 268 268 268 271 274 275 274 271 270 270 270 270 270 270
269 268 267 267 267 267 267 267 265 264 264 264 264 263 263 263 262 261 260 259 259 259 259 259 259 259 259 259 259 259 259 260 260 260 261 261 262 263 264 266 268 268 267 267 266 265 265 265 265 264 266 264 263 265 268 270 271 271 270 268 267 266 265 265 266 266 268 268 268 270 271 270 269 270 273 274 276 275 272 271 271 271 270 269 270
268 268 267 267 267 266 265 264 263 263 263 263 262 262 262 262 261 260 258 258 258 259 259 259 259 258 258 259 259 259 259 259 259 260 260 261 263 263 264 266 267 267 266 266 266 265 264 264 265 264 264 265 263 263 264 268 269 270 271 268 267 266 265 265 266 266 266 267 267 268 270 272 274 274 274 275 276 277 274 273 272 270 269 269 271
267 266 267 266 265 265 264 263 263 263 262 262 262 261 261 261 259 258 257 258 258 259 258 258 258 258 258 258 258 258 258 259 259 259 260 261 262 263 264 266 266 266 265 265 265 264 264 263 264 264 263 263 263 263 263 267 268 269 270 270 267 266 266 265 265 266 266 266 267 267 268 270 273 274 275 276 276 277 277 273 272 270 270 271 272
267 266 266 265 264 264 263 263 263 262 261 261 261 260 260 259 258 257 257 258 258 258 258 257 257 257 257 257 257 258 258 259 259 259 260 260 262 264 265 265 266 265 264 264 264 263 262 262 263 263 263 262 263 264 262 265 268 269 270 270 268 266 267 265 265 265 266 266 267 268 268 270 273 274 275 276 277 277 277 274 273 275 276 276 274
264 264 264 264 263 263 262 263 262 261 261 260 260 259 259 258 257 257 258 258 258 257 257 257 256 256 256 256 257 257 257 258 259 260 260 260 262 263 265 265 264 263 263 263 262 262 261 261 261 262 262 262 262 262 264 263 266 268 269 270 271 269 270 267 265 265 266 267 269 270 271 272 274 275 276 277 277 278 277 276 277 277 278 277 277
264 264 263 264 263 262 262 262 261 260 260 260 259 258 258 257 257 258 258 257 257 257 256 256 256 256 256 256 256 257 257 258 259 260 261 261 262 263 264 264 263 263 262 261 261 261 260 260 260 260 261 261 262 261 263 265 265 267 268 270 271 272 271 268 267 266 267 268 269 270 271 274 275 276 277 277 277 277 276 277 277 277 277 277 275
263 262 263 263 262 261 261 261 261 260 259 259 259 258 257 256 257 257 257 256 256 256 255 255 255 255 255 255 256 257 258 258 260 260 261 262 263 264 263 263 263 262 262 261 261 261 260 259 260 260 260 261 262 262 262 263 265 266 268 269 270 271 272 271 268 268 269 269 272 273 274 275 275 276 276 276 276 277 277 277 277 276 276 272 271
262 262 262 262 261 261 260 259 259 259 259 259 259 258 256 256 257 257 256 256 256 255 254 254 254 254 255 255 256 257 258 259 260 261 262 262 263 263 262 262 262 261 261 261 260 260 260 260 259 260 260 261 262 263 263 263 265 266 267 269 270 271 271 272 272 270 271 272 273 274 275 275 275 274 273 272 272 272 275 275 275 273 268 268 269
261 261 262 261 260 259 258 258 257 258 258 258 258 258 257 257 256 256 256 256 255 254 254 254 254 254 255 255 256 257 258 259 260 261 262 263 264 263 262 262 262 261 261 260 260 260 260 260 259 260 260 261 262 263 263 264 265 265 266 267 268 269 271 271 271 271 272 271 272 273 273 273 273 274 274 274 273 273 271 271 269 269 269 269 270
261 261 261 261 260 258 257 257 256 257 257 257 257 257 256 256 256 256 256 255 254 254 253 253 253 254 255 255 256 258 259 258 259 260 262 262 262 262 261 261 261 261 260 260 259 259 259 259 259 260 261 261 262 263 264 264 265 266 267 267 267 268 268 269 269 270 270 271 271 272 270 268 269 268 268 267 267 268 268 268 268 268 268 269 271
260 260 261 260 259 257 257 256 256 256 257 256 256 256 256 256 256 256 255 254 254 254 253 253 253 254 254 256 257 258 258 258 259 261 262 262 261 261 262 262 263 262 262 261 260 260 260 260 261 260 261 261 263 264 265 268 268 269 268 267 267 267 267 267 270 271 269 268 268 267 267 267 267 266 266 266 266 266 265 265 264 264 264 265 265
260 260 260 259 258 257 256 255 255 256 256 256 256 255 255 256 256 255 255 254 253 253 253 253 253 254 255 256 257 258 258 258 259 260 260 260 263 265 264 263 263 265 266 267 267 262 262 261 261 262 262 262 262 265 270 270 270 270 270 271 270 270 270 269 270 272 269 266 265 265 265 265 265 264 265 265 264 263 262 261 261 266 263 262 263
259 259 259 258 257 256 255 255 255 256 256 255 255 255 255 255 255 255 254 253 253 252 252 253 253 254 255 257 257 257 258 258 259 259 259 259 259 261 265 267 267 267 267 268 268 268 269 268 264 262 263 267 268 269 270 270 270 270 271 271 271 271 272 272 272 270 268 266 264 264 263 263 263 262 261 261 261 260 259 259 259 259 260 262 262
Wind_Speed
5 6 5 4 5 4 4 2 2 1 1 1 0 1 2 3 3 4 4 4 4 3 3 4 4 4 4 6 7 6 6 6 7 7 7 7 6 7 6 6 5 6 6 7 7 7 6 6 6 5 5 6 6 7 6 6 5 4 3 4 4 5 5 5 4 4 6 6 5 8 7 5 8 10 9 7 6 6 6 4 3 4 4 4 4
7 6 4 4 3 4 4 3 4 1 3 2 1 1 1 2 3 4 4 3 4 4 4 4 4 5 6 6 6 6 6 6 7 6 7 7 6 6 6 6 7 7 6 7 7 7 7 6 6 6 6 6 6 6 5 6 6 5 4 4 3 4 5 4 5 4 6 5 5 5 6 7 11 10 10 8 8 5 4 3 4 4 4 4 3
6 5 5 4 4 4 4 3 3 2 2 1 1 1 1 2 2 3 3 3 4 4 4 4 4 4 5 5 5 5 5 6 6 7 6 6 6 6 6 6 6 7 7 7 7 7 8 7 7 7 7 6 7 7 7 8 6 6 6 5 4 4 5 5 6 6 6 4 4 5 6 5 3 4 3 1 1 1 1 3 4 3 3 3 3
6 5 5 5 5 4 3 3 3 2 2 4 4 3 2 2 3 3 4 4 4 4 4 4 5 5 4 4 5 5 6 4 5 3 3 4 6 6 6 6 8 7 7 8 7 7 8 8 7 7 7 7 7 7 7 8 7 7 6 6 5 6 6 6 5 6 5 5 3 6 3 2 6 1 4 5 1 4 4 6 2 1 2 3 3
5 5 3 4 4 3 2 2 1 1 3 4 3 3 2 4 4 3 4 4 4 4 4 4 4 4 4 5 5 5 5 5 6 7 6 5 5 5 8 8 8 8 8 8 8 8 8 8 7 7 7 7 7 8 8 8 7 7 8 7 8 8 8 6 6 6 6 6 6 2 3 1 4 1 4 5 5 2 1 1 1 1 3 3 3
4 4 4 4 3 2 3 3 2 2 3 3 2 1 2 3 3 4 4 3 4 4 4 4 4 4 4 4 6 5 6 5 7 8 7 7 9 8 7 8 9 9 8 8 9 8 8 8 8 8 8 7 8 8 7 7 8 8 8 8 9 9 7 6 6 5 5 6 6 6 5 4 2 3 4 4 2 3 7 7 4 4 4 3 3
4 4 4 4 3 3 3 3 2 2 4 4 3 4 5 4 4 4 3 3 2 3 3 2 3 4 4 5 5 7 8 7 5 6 7 8 7 7 8 8 9 10 9 9 9 9 8 8 9 9 9 8 8 8 8 9 8 8 7 8 8 8 7 8 9 7 4 6 6 6 7 6 3 1 4 2 5 3 1 2 4 3 3 3 4
4 4 4 3 2 2 3 4 4 4 5 5 4 4 5 5 5 6 5 2 2 3 3 3 4 4 5 5 6 7 7 9 8 8 7 7 6 7 7 8 9 9 10 10 10 10 10 10 9 10 10 9 9 9 9 8 7 7 8 8 7 8 9 9 8 7 7 5 5 7 7 6 6 5 4 4 4 5 7 4 4 7 6 5 4
4 4 5 4 5 4 4 4 4 5 5 5 5 5 5 6 6 5 8 5 3 3 4 4 4 5 6 5 6 7 7 8 7 7 8 7 8 8 6 7 8 8 10 10 10 11 11 10 10 10 10 10 10 9 9 9 10 9 9 9 9 9 8 7 6 7 7 7 6 5 6 6 6 6 6 6 5 4 10 6 4 2 2 4 5
5 5 5 5 4 5 4 3 4 4 5 5 5 5 5 6 6 7 6 5 5 5 5 5 5 5 6 6 8 8 7 7 6 8 7 7 7 8 7 6 7 7 9 10 10 11 11 11 10 11 11 10 9 10 10 10 10 10 10 9 9 9 8 8 8 6 7 6 6 6 4 4 4 4 5 5 5 7 8 5 4 5 6 3 1
6 5 5 4 4 4 4 4 4 5 5 5 5 6 6 6 6 7 6 5 5 5 5 6 6 5 6 7 8 9 9 8 8 8 7 6 8 8 7 7 6 8 7 9 11 11 11 11 11 11 11 10 10 11 11 11 10 10 10 9 9 10 9 9 9 8 6 6 7 7 7 6 6 6 6 6 7 6 5 8 6 5 3 4 2
5 5 5 5 5 6 5 4 4 5 6 5 5 5 5 4 5 6 6 6 5 4 4 5 5 6 6 7 8 9 8 7 8 9 8 8 8 9 8 7 7 7 7 8 9 10 10 10 11 11 10 10 11 10 10 10 10 9 9 9 9 9 9 9 9 8 9 7 8 7 7 6 6 5 5 6 7 8 7 6 5 2 3 3 2
5 6 5 5 5 5 4 3 5 5 5 5 5 5 4 3 4 5 6 6 6 5 5 5 5 5 6 6 7 8 8 8 8 8 8 8 8 8 8 8 8 7 8 9 8 10 10 10 10 11 11 11 11 11 11 11 10 10 10 10 10 10 10 10 9 10 10 8 8 7 6 6 7 5 5 5 3 4 4 5 4 1 6 4 2
5 4 4 4 4 5 4 5 6 5 5 5 4 5 5 5 6 6 8 7 6 5 5 5 5 5 5 6 6 6 7 8 7 8 8 7 7 8 8 8 9 9 9 9 8 9 10 11 11 11 11 11 11 12 11 11 11 10 10 10 11 10 9 11 11 10 9 9 7 6 6 6 7 5 5 5 5 4 4 5 3 3 3 6 2
4 5 5 7 6 7 6 6 5 5 5 5 5 6 6 6 7 7 8 6 5 6 5 5 5 5 5 5 6 6 7 7 7 7 7 8 8 9 9 8 8 9 9 7 6 8 9 10 11 11 11 12 12 11 11 11 11 10 10 10 9 9 10 10 10 10 9 8 8 8 7 5 5 6 6 6 6 4 4 4 4 4 3 3 5
6 6 7 8 7 8 7 6 6 6 6 6 7 7 7 8 8 9 10 9 9 7 6 6 6 6 6 6 7 7 7 7 7 7 7 7 8 8 9 8 8 8 8 6 6 7 8 10 11 12 12 11 11 12 11 10 11 10 10 10 10 8 9 11 10 10 11 10 9 8 6 7 6 6 6 6 5 5 5 3 3 4 4 6 2
7 7 8 7 7 6 8 7 8 8 9 9 9 9 10 10 11 12 11 11 11 9 8 6 7 7 7 7 7 6 7 8 9 8 9 8 7 7 8 8 8 7 8 5 6 6 7 9 10 11 12 11 12 12 12 11 10 10 10 10 10 9 8 10 9 9 9 9 9 9 7 6 6 5 4 5 6 4 4 3 3 4 5 5 3
7 7 7 8 8 8 9 6 8 10 10 11 11 11 11 11 12 13 13 13 11 10 8 7 7 7 7 8 7 7 7 8 8 8 7 6 6 6 6 7 7 7 7 7 7 8 8 9 10 11 11 11 12 11 11 11 11 10 10 10 9 8 9 8 8 9 9 8 9 9 7 7 6 5 5 5 4 4 4 4 3 3 3 5 4
9 8 7 8 7 7 8 9 11 12 11 11 13 14 13 12 12 11 13 13 14 13 11 8 7 9 10 10 9 9 8 9 8 7 6 6 7 6 6 7 7 7 7 7 8 9 9 9 9 10 10 11 11 11 11 10 10 9 10 9 9 9 9 9 8 8 8 8 9 10 9 8 7 6 6 5 4 4 4 4 3 3 3 4 4
9 8 8 8 8 8 10 12 13 13 12 12 14 14 14 13 13 14 14 13 15 17 14 11 10 10 10 9 9 9 7 7 7 7 7 7 7 6 6 6 8 7 7 8 8 9 10 10 9 10 11 11 11 11 10 10 9 9 9 9 9 10 11 11 9 8 7 8 9 9 9 9 8 6 6 5 5 4 4 4 4 4 4 4 4
6 7 7 8 8 9 9 11 11 11 12 13 14 15 13 14 16 16 16 16 17 16 14 11 11 11 12 14 13 8 9 10 10 9 9 8 8 7 6 6 6 7 7 7 9 10 10 10 11 10 11 11 11 11 10 10 10 10 9 9 9 11 11 10 9 10 9 9 9 8 9 9 8 7 6 6 6 5 4 4 4 4 4 4 4
5 6 7 8 8 9 11 11 10 11 13 15 15 14 15 15 16 17 17 16 16 17 16 15 13 13 14 14 12 11 12 12 13 14 13 13 11 7 5 4 6 8 8 8 9 9 9 10 10 11 11 12 12 12 11 10 10 10 10 8 10 11 11 10 10 11 11 9 10 9 9 8 7 7 6 6 6 6 6 5 5 5 4 4 4
8 7 7 8 8 10 11 12 12 13 14 15 14 14 15 15 16 17 17 17 16 17 16 15 15 15 15 13 13 13 14 14 15 14 14 13 10 3 2 4 7 9 8 7 8 9 9 10 11 11 10 11 12 11 10 11 10 11 11 10 10 11 11 10 11 11 11 9 10 10 10 8 6 7 6 6 4 5 5 7 6 5 5 4 5
6 6 8 9 9 11 11 11 12 13 14 15 15 16 16 15 16 16 17 18 18 16 16 16 15 15 16 15 15 15 15 15 15 13 15 11 2 3 4 7 9 9 8 7 7 8 9 9 10 11 11 11 12 11 10 10 11 11 11 11 11 10 10 10 10 9 9 9 10 10 9 9 7 7 7 6 5 4 4 4 6 5 5 6 6
7 10 11 12 13 13 12 12 13 15 15 15 17 17 16 16 15 15 17 18 17 16 16 16 17 19 18 17 17 15 15 16 16 15 10 4 5 5 6 8 9 10 8 7 7 7 9 9 10 11 11 11 11 11 11 11 10 10 11 10 10 10 9 9 9 9 9 9 9 9 8 8 7 8 7 7 7 8 6 5 4 4 5 5 3
12 13 13 14 12 11 12 13 15 15 15 16 17 16 17 15 14 14 17 18 18 16 16 17 18 19 19 19 18 17 17 17 18 12 6 7 7 7 7 8 9 11 9 7 8 8 9 10 10 10 11 11 11 10 10 10 10 10 9 9 8 8 8 8 8 8 8 8 8 8 7 8 9 9 9 7 7 8 7 7 7 6 5 4 4
12 13 14 14 12 13 13 15 16 15 15 15 16 17 17 16 17 16 16 16 16 17 18 18 18 18 18 17 17 17 17 19 14 9 10 10 10 9 8 9 9 10 10 9 9 10 9 9 10 10 11 10 10 10 9 10 10 9 8 8 8 8 8 7 7 8 8 7 7 7 7 7 8 9 9 8 8 7 7 8 7 5 4 4 4
12 15 16 14 12 13 15 17 17 16 16 16 16 15 15 15 17 17 16 16 16 18 18 18 18 17 17 17 16 16 17 16 12 15 14 13 10 9 8 9 9 11 10 10 10 10 10 9 10 11 10 9 9 8 8 8 8 8 8 8 8 8 8 8 7 7 6 6 7 7 7 8 8 7 8 7 6 6 5 5 6 4 4 4 4
14 16 15 13 14 15 18 18 18 18 19 19 17 16 15 16 16 15 15 16 18 19 19 18 18 18 18 15 15 15 15 17 18 17 17 15 13 9 7 8 9 9 9 9 9 9 10 9 9 9 9 9 8 8 7 8 8 9 8 8 9 9 9 8 7 7 6 7 8 7 7 6 8 10 11 9 8 7 5 6 5 5 5 5 4
16 16 15 13 16 18 18 19 18 18 19 18 17 17 18 18 17 17 17 18 18 19 19 19 19 19 16 15 15 15 18 19 20 19 20 18 12 9 8 7 8 9 9 9 9 10 9 9 9 9 9 8 8 7 10 17 15 8 8 8 8 9 9 7 7 7 7 8 8 7 7 12 13 16 18 18 19 18 15 8 6 6 6 6 5
16 16 15 17 18 18 18 18 17 17 17 16 18 18 17 17 16 17 18 18 18 18 19 19 19 16 16 16 16 16 16 19 19 17 18 16 16 13 11 10 9 9 10 10 10 11 10 9 9 9 9 8 7 7 16 20 21 22 13 9 9 8 7 8 7 8 7 8 8 9 7 10 13 15 15 20 18 19 20 20 17 14 10 8 7
17 17 17 19 19 20 20 19 18 18 18 18 19 20 18 18 19 19 18 18 18 19 19 18 17 16 17 17 17 17 16 18 18 21 19 18 15 14 13 12 11 10 10 10 11 11 11 10 8 8 8 8 7 12 20 21 21 22 19 11 9 8 7 7 7 7 7 6 6 7 8 8 9 10 9 10 15 19 20 20 20 19 18 19 15
17 19 19 20 20 20 19 18 17 17 18 21 20 20 19 19 22 21 19 19 19 18 18 20 19 16 19 20 19 19 18 18 17 18 14 15 16 17 15 13 13 11 10 10 11 11 10 9 9 9 8 7 7 14 20 21 21 21 23 16 9 10 9 9 8 8 7 7 6 7 7 8 9 18 15 11 10 12 18 21 21 21 20 20 19
16 17 18 17 18 17 17 17 16 16 18 18 18 18 18 19 20 20 20 20 18 18 19 20 21 23 21 19 18 18 19 19 19 16 13 17 18 19 15 13 13 13 12 11 10 11 10 9 9 8 8 7 7 12 20 21 21 22 22 16 10 11 11 10 11 10 9 9 8 7 7 7 7 10 10 11 11 12 11 12 13 12 11 16 20
17 20 20 19 18 18 19 19 16 18 19 19 19 17 18 18 18 20 18 18 17 19 19 20 20 21 21 20 20 18 17 18 18 16 16 16 18 17 16 13 13 14 13 11 10 10 9 9 8 7 7 8 7 15 19 20 20 22 21 18 9 11 10 10 10 10 11 10 10 9 9 9 9 10 10 13 12 12 11 11 11 11 11 10 11
17 18 17 18 18 19 19 19 17 19 19 17 17 18 18 19 18 17 17 18 20 19 19 17 17 18 19 19 19 18 17 18 18 18 18 16 17 18 15 13 13 14 11 9 8 7 8 8 8 8 7 8 8 18 19 20 21 20 21 10 6 8 9 9 9 10 11 10 9 10 9 10 10 9 14 20 17 11 11 11 12 11 10 9 9
18 16 15 14 15 17 18 17 17 17 19 18 18 17 18 19 18 16 17 18 18 18 17 16 16 18 19 18 20 20 19 19 17 17 16 17 18 17 16 13 15 13 11 8 7 7 7 7 7 7 8 7 6 13 18 19 20 20 15 7 6 5 5 8 9 10 10 10 10 10 10 9 10 10 14 18 20 18 11 13 11 10 9 9 9
15 16 13 12 13 15 17 16 16 17 16 16 16 18 19 18 18 18 19 18 17 17 17 18 19 19 19 18 18 19 18 18 17 17 18 18 16 16 15 15 14 12 8 8 6 5 5 5 6 7 7 7 6 10 18 18 19 19 16 8 6 6 6 7 6 7 8 9 11 19 15 11 11 11 18 20 20 18 12 12 11 11 12 10 9
13 15 16 16 14 14 16 16 16 17 17 17 18 19 18 17 17 17 17 18 17 17 19 20 21 20 20 18 17 17 18 17 18 18 17 18 17 14 15 15 12 9 8 6 4 4 3 3 4 6 10 9 6 9 16 17 19 19 15 7 6 6 7 7 7 7 6 7 9 13 19 16 14 15 20 20 21 18 13 13 12 8 7 10 10
15 15 15 15 14 16 16 16 16 16 17 18 17 16 17 16 15 16 17 17 18 19 20 20 19 19 17 17 16 18 17 17 20 19 17 16 14 14 14 15 13 10 5 4 4 3 4 3 3 5 6 7 7 5 9 17 17 18 19 10 5 6 8 8 7 7 7 7 7 6 11 18 20 20 20 20 20 23 15 13 11 9 9 11 8
17 17 17 14 14 14 15 16 15 18 19 18 17 17 17 15 16 17 18 18 20 20 20 19 19 18 18 18 16 16 19 19 16 16 15 16 14 16 16 12 13 8 4 3 3 2 3 3 3 4 4 5 5 6 8 15 16 18 19 17 7 8 7 7 6 7 7 7 7 8 8 16 21 21 21 21 21 22 19 12 13 11 10 10 9
13 14 15 16 16 15 16 16 14 17 18 17 18 19 17 15 16 18 19 18 18 17 17 18 18 19 18 18 18 18 17 16 17 15 16 15 15 15 13 13 9 4 4 4 3 2 2 2 2 3 4 5 6 11 7 13 18 19 19 20 10 7 9 6 7 7 7 7 8 8 9 14 21 22 22 22 23 22 22 11 13 16 17 17 11
18 18 17 16 15 17 18 18 14 16 16 17 19 18 16 15 17 19 17 16 17 17 18 17 18 19 19 19 19 20 18 15 16 17 17 16 16 15 12 11 8 6 5 4 2 1 1 2 2 3 3 5 5 7 14 11 17 19 19 18 19 12 16 10 8 7 8 8 8 8 9 17 19 20 21 23 23 24 21 10 21 23 21 22 17
14 13 15 17 15 16 17 15 13 15 15 16 16 17 17 19 20 17 16 17 17 17 17 17 18 18 19 19 19 19 18 16 16 16 15 16 17 12 9 9 7 5 4 3 3 2 2 3 4 5 5 5 5 6 11 16 14 18 17 17 18 19 18 10 9 8 8 9 8 8 8 15 17 19 20 22 24 24 11 16 21 19 19 17 9
17 18 17 15 16 19 18 17 14 16 15 15 14 17 20 20 18 16 18 18 18 17 18 18 18 18 19 18 18 16 17 16 15 15 15 15 16 11 9 8 6 5 5 5 4 3 4 4 5 6 6 5 6 7 7 10 15 15 16 16 16 17 18 19 12 9 10 9 11 15 17 17 18 18 17 16 15 16 18 14 13 13 10 2 2
15 16 17 16 16 16 17 19 19 17 16 15 14 14 18 19 18 17 17 17 18 20 21 20 19 19 19 19 19 18 16 16 17 14 14 13 13 9 9 9 7 5 4 5 4 3 3 4 5 5 6 6 6 5 6 7 9 10 10 14 16 16 16 17 15 12 16 18 18 15 14 9 6 5 3 2 4 3 3 5 6 7 5 3 3
17 17 17 16 16 17 19 20 21 18 15 15 15 14 15 16 18 17 17 17 19 20 21 20 20 19 18 17 18 15 15 14 15 14 13 12 10 8 9 9 7 5 5 4 4 4 4 5 5 5 5 6 6 5 5 5 5 5 5 6 8 9 14 14 10 7 11 10 11 9 4 3 3 4 4 8 8 6 6 6 4 4 4 4 2
14 14 15 15 15 16 18 19 19 18 16 15 14 15 16 17 16 16 16 18 19 19 20 20 21 17 15 16 16 20 19 13 14 15 12 12 11 10 10 9 7 6 5 4 4 4 5 5 5 4 5 6 6 5 5 5 4 5 5 5 6 5 4 2 4 5 4 4 2 6 8 7 7 8 6 5 5 4 5 5 4 3 3 2 2
16 16 15 14 15 17 18 18 18 16 16 15 15 16 16 17 17 16 17 19 19 21 21 20 18 15 15 15 14 13 13 14 14 13 11 11 12 12 11 9 7 5 5 5 5 5 5 5 5 5 6 5 5 4 4 5 5 7 4 3 3 3 3 2 3 8 6 5 5 5 5 5 5 5 5 4 4 4 4 3 3 2 1 0 0
14 14 14 14 13 15 17 18 16 16 15 16 16 16 16 15 16 16 17 19 21 20 19 18 16 15 15 14 13 13 13 14 13 12 13 13 16 21 16 12 9 11 15 15 12 6 6 4 5 6 5 5 5 6 10 4 3 3 3 6 6 6 6 4 4 9 7 5 3 5 4 4 4 4 4 3 3 4 5 3 1 2 1 1 0
15 16 16 15 15 15 15 16 16 15 15 15 17 17 17 17 16 16 17 19 21 18 16 15 16 15 16 16 14 14 13 12 11 12 12 14 14 14 19 23 21 21 14 14 13 13 13 12 8 5 7 11 12 14 12 5 4 4 5 5 7 7 9 9 8 5 4 4 4 5 5 5 5 5 5 5 4 4 4 5 3 2 1 0 0
Wind_Direction
98 110 118 135 146 145 136 135 154 192 176 193 213 248 244 249 271 276 264 266 270 242 218 224 229 249 247 237 242 239 235 233 230 227 226 226 222 215 210 204 206 206 204 205 213 216 221 226 230 233 224 221 220 224 227 239 245 243 244 247 232 239 251 246 252 255 269 281 280 268 270 269 269 266 255 249 247 239 217 186 224 230 240 253 238
71 62 58 66 77 133 135 165 179 102 65 55 58 339 316 297 275 270 285 288 278 261 228 217 207 203 212 232 238 241 244 234 238 227 223 222 219 219 212 203 206 210 210 208 211 210 219 220 223 226 226 229 225 223 227 233 237 241 244 263 255 238 253 241 249 237 255 249 283 302 291 270 260 256 246 236 228 228 187 189 216 224 241 250 251
66 60 46 48 42 54 78 50 48 113 120 130 131 32 354 331 302 292 286 281 271 271 266 243 238 228 214 243 236 253 236 233 229 220 215 204 212 216 215 210 207 214 213 214 211 214 215 218 223 218 222 225 230 227 223 228 225 228 226 219 250 262 252 242 239 227 233 259 279 305 284 327 305 293 304 122 67 159 164 208 225 224 242 251 252
63 47 37 29 32 35 46 65 71 35 67 61 30 16 352 339 314 310 296 285 277 268 261 260 249 246 244 245 257 251 265 283 290 284 226 208 218 208 214 211 211 215 214 215 218 217 216 221 221 221 221 220 222 227 226 224 218 220 216 224 219 244 245 253 238 234 218 215 274 210 253 328 313 282 9 285 261 275 266 254 219 225 259 285 290
53 46 29 27 29 26 28 70 60 83 87 73 50 11 16 334 329 316 307 294 279 276 274 274 282 285 290 301 299 306 314 300 294 284 268 253 244 215 221 212 216 219 216 216 216 218 219 222 223 225 224 224 222 224 226 226 222 214 210 213 218 225 238 245 252 238 233 213 193 301 310 245 222 278 6 298 279 293 269 225 263 231 255 265 270
66 49 33 20 21 4 10 37 20 45 74 90 64 31 4 333 331 325 308 301 295 289 285 293 292 273 290 294 292 280 274 268 260 262 261 248 240 237 227 214 216 220 220 219 218 218 218 219 223 226 229 229 226 226 226 228 227 222 211 207 218 222 219 236 249 251 233 238 221 206 193 202 282 297 49 293 349 332 293 285 268 265 265 270 286
41 50 24 22 7 10 5 26 6 40 64 56 31 21 356 338 322 302 298 298 298 288 285 293 289 282 261 253 257 264 274 268 247 251 247 250 241 228 225 220 215 217 220 218 218 218 217 216 219 224 229 233 233 229 226 224 225 225 219 214 214 215 218 229 232 238 267 255 237 228 232 245 233 244 239 310 307 300 345 355 325 305 294 290 289
51 42 8 23 4 7 10 15 12 47 64 49 23 19 352 341 338 324 303 305 301 303 292 241 240 247 257 263 264 267 263 270 274 271 266 266 254 236 218 216 213 212 215 217 216 217 217 217 214 219 224 228 232 234 230 227 226 228 223 221 218 215 211 220 228 225 215 241 222 226 228 226 222 228 224 207 240 281 278 278 274 266 255 253 245
52 23 1 11 2 0 9 15 14 52 56 42 20 2 344 339 333 334 329 319 308 308 300 265 226 228 233 248 266 260 261 267 269 268 269 263 266 264 234 215 207 207 208 213 216 215 216 216 215 218 221 224 228 234 235 229 225 224 226 221 218 220 215 216 211 221 217 222 231 235 212 215 213 214 220 217 223 242 273 267 267 301 310 287 268
38 25 353 4 2 356 5 21 34 56 54 32 15 358 348 339 338 342 332 343 330 329 317 303 262 236 238 242 250 264 266 270 272 273 273 271 266 267 259 231 212 208 210 210 216 216 215 215 215 219 221 222 222 228 233 233 229 227 226 224 220 220 221 217 218 215 215 222 218 229 225 215 203 216 212 211 236 225 254 263 277 276 270 247 349
41 4 351 350 352 351 360 19 46 52 38 20 5 1 350 346 344 340 325 326 322 316 327 318 309 267 242 242 245 256 264 268 274 275 275 278 274 272 266 248 226 219 209 213 214 214 217 216 217 218 221 223 223 224 226 228 229 228 228 230 227 219 217 218 223 215 212 219 228 223 225 210 202 198 208 211 210 229 242 253 251 230 242 295 267
30 1 347 350 355 358 1 19 46 36 23 12 7 5 348 348 342 330 315 304 296 294 308 298 298 297 266 252 251 253 260 266 267 273 274 275 275 275 271 264 249 236 222 216 216 211 214 219 219 219 220 221 224 224 225 227 228 227 226 226 230 226 217 218 222 222 211 215 222 226 226 224 235 225 215 201 202 221 222 246 246 289 295 237 291
30 5 353 349 356 345 340 26 37 22 13 7 1 350 326 318 306 297 290 285 285 284 286 276 282 279 288 278 263 262 261 261 265 269 272 274 276 277 276 270 265 255 239 231 220 209 211 217 218 217 219 219 221 222 225 225 225 225 225 224 224 222 218 216 219 219 215 212 214 221 223 230 233 236 240 239 240 229 236 258 253 221 265 285 273
36 359 335 344 331 338 359 46 32 16 359 349 336 320 302 295 284 274 273 273 277 283 273 275 268 268 270 277 278 272 266 260 257 261 266 266 266 270 273 272 272 267 261 240 225 211 212 216 216 221 221 222 221 221 223 224 223 225 224 224 222 222 221 221 223 221 219 217 210 215 222 226 232 230 235 233 233 233 236 227 242 246 233 267 259
15 355 354 356 350 3 22 32 16 353 336 329 322 313 307 300 293 288 290 288 278 277 278 273 272 265 262 260 266 267 270 264 257 250 254 261 264 269 269 272 272 272 272 253 221 212 216 216 217 219 221 221 219 220 221 222 223 224 226 225 223 218 219 222 225 219 220 215 212 211 219 225 225 222 220 235 227 220 207 209 204 252 277 249 273
359 359 355 352 3 22 20 7 350 341 334 330 325 318 314 310 309 308 306 304 303 301 274 262 264 258 250 256 259 256 253 256 257 252 249 247 258 260 268 268 265 270 273 253 222 218 219 223 221 222 221 221 219 219 219 220 220 221 224 224 225 217 217 218 222 221 223 219 218 212 213 225 225 222 222 230 230 226 221 218 207 195 215 273 239
2 359 347 356 18 18 4 353 345 343 343 335 327 326 324 320 320 316 313 309 304 295 289 275 268 268 262 257 257 256 254 254 253 252 254 253 252 256 262 262 263 269 271 246 238 229 227 225 226 225 223 222 221 219 218 219 218 221 223 223 223 219 219 220 219 221 220 218 221 215 215 219 226 230 237 226 226 231 229 222 208 198 176 227 259
356 346 8 17 11 357 347 342 346 348 343 337 336 333 327 322 320 319 317 314 309 300 289 281 282 282 276 261 249 245 251 254 251 252 251 257 258 256 255 259 256 259 258 246 239 239 234 228 229 229 225 222 221 219 217 217 217 221 223 223 221 219 226 224 221 220 220 216 218 220 218 221 218 221 227 227 224 221 221 220 219 208 193 205 213
352 17 26 3 351 347 341 348 352 349 343 338 334 331 326 323 322 320 318 317 316 312 299 290 291 294 289 277 267 269 266 266 263 255 254 255 258 254 249 250 254 256 253 241 238 241 238 234 231 231 227 224 222 220 217 216 215 219 220 222 220 218 224 226 222 220 220 215 216 218 215 219 214 218 220 225 228 219 213 206 209 207 213 194 219
5 20 1 353 344 347 352 354 350 343 340 338 334 329 327 327 326 322 319 321 321 314 305 296 296 295 291 283 278 273 274 277 271 269 265 259 254 249 247 256 256 253 245 237 234 237 237 237 233 230 228 225 222 221 218 217 215 219 219 219 219 219 223 224 222 221 224 221 220 219 215 214 209 209 215 219 221 220 204 197 200 201 210 211 199
19 358 351 347 348 349 353 350 341 338 338 337 334 330 329 334 329 326 324 324 318 314 310 306 305 304 301 296 291 294 304 306 295 283 277 272 262 242 238 244 252 252 242 234 235 235 236 238 236 231 227 225 222 219 217 217 217 219 219 220 219 220 222 221 221 224 224 226 225 226 221 217 206 206 207 207 210 212 204 201 198 196 209 212 207
359 353 349 344 348 350 347 340 335 339 339 338 336 334 335 334 330 327 323 319 319 318 317 313 313 310 307 305 307 310 304 297 293 291 285 280 268 239 239 251 261 266 255 240 236 235 235 236 236 233 226 223 222 219 215 216 217 218 219 216 222 222 222 219 218 223 222 223 224 225 226 221 210 209 200 205 204 198 200 201 201 197 206 210 215
347 347 345 345 347 346 338 334 338 342 340 337 334 332 328 326 327 322 318 318 320 318 316 316 313 313 310 308 307 304 300 296 292 287 283 280 271 243 278 291 288 278 262 236 233 234 234 234 235 233 225 221 217 216 213 214 215 216 217 217 219 222 223 219 218 221 221 219 221 221 223 219 213 213 211 212 202 201 193 197 202 192 201 210 214
333 345 351 343 337 336 334 336 343 342 337 334 331 327 325 325 324 320 319 322 321 319 318 315 313 312 311 307 303 300 298 298 295 297 296 298 21 348 333 310 299 284 266 243 233 239 239 233 236 233 227 221 216 212 211 212 215 214 217 219 221 223 223 223 222 222 223 221 219 219 218 214 212 216 218 218 214 211 204 195 193 199 201 217 210
344 349 345 338 339 337 341 347 344 337 333 332 331 327 325 324 323 327 328 325 322 320 320 321 324 322 319 316 314 313 314 314 314 313 323 20 351 343 323 310 300 287 270 253 244 240 242 238 235 231 225 222 218 213 210 212 213 215 217 218 221 224 224 223 224 225 224 223 224 220 213 207 206 214 218 219 214 217 217 214 209 203 214 221 208
352 341 339 339 335 341 350 348 337 333 331 331 329 327 324 321 326 333 328 323 322 325 327 330 327 324 322 322 322 321 320 321 320 326 345 344 336 317 313 304 296 290 278 261 252 244 241 240 233 229 225 221 217 215 212 210 212 214 219 219 220 224 225 223 224 227 227 227 229 228 222 208 203 209 217 216 215 217 213 218 220 216 215 209 209
339 341 339 336 339 347 350 341 335 330 330 329 329 329 327 328 331 332 327 324 328 329 328 326 325 321 320 320 321 321 322 319 324 348 340 325 314 305 299 299 301 296 285 266 256 252 244 239 233 228 225 219 215 210 210 210 212 214 216 216 221 226 226 222 224 226 229 234 235 232 232 224 212 209 211 212 214 214 205 211 212 205 210 203 199
342 341 338 334 339 344 344 339 334 332 331 332 331 329 329 330 329 327 327 332 331 327 324 323 321 319 317 317 318 333 334 330 334 320 312 305 295 294 299 304 303 293 282 267 258 253 249 238 233 229 225 218 212 209 206 208 211 213 212 214 217 224 226 227 229 230 231 235 237 240 237 233 226 216 210 209 204 213 200 209 204 195 204 209 211
344 336 335 340 346 344 340 339 338 339 339 334 332 331 331 329 326 324 331 332 328 324 322 322 319 319 316 320 335 327 322 322 318 314 309 302 289 281 297 302 300 291 282 271 261 255 249 240 231 226 223 217 211 207 204 205 207 209 207 213 217 222 224 229 230 231 234 234 236 238 240 237 229 224 215 206 202 201 193 208 202 188 201 203 208
338 334 338 347 347 343 344 343 339 339 334 332 331 332 332 328 326 329 332 330 327 322 320 320 319 317 320 332 330 336 337 335 331 326 320 313 314 314 308 306 301 293 282 274 267 257 247 237 230 223 220 214 210 204 209 214 214 205 205 211 216 218 217 218 222 225 227 229 229 231 237 239 237 231 230 229 227 225 223 204 195 197 200 198 201
335 342 350 346 344 346 343 338 336 334 334 336 333 330 327 324 327 332 331 329 324 321 322 320 316 322 333 339 343 335 332 323 318 319 320 322 315 310 307 304 299 292 283 276 264 255 246 237 229 220 214 211 206 206 216 226 226 221 210 206 207 211 207 212 214 217 223 224 222 223 228 238 239 236 233 231 229 227 226 225 220 216 208 198 192
347 350 347 348 348 344 339 336 335 336 340 339 333 328 328 330 335 333 329 326 325 323 322 324 327 336 343 336 330 326 320 313 311 308 305 303 301 302 302 298 294 291 285 276 262 250 243 234 228 220 214 208 206 210 222 228 229 232 228 199 196 195 199 210 210 218 223 228 224 215 215 218 229 237 239 236 234 231 228 228 226 223 221 217 210
355 350 350 347 344 338 335 336 337 340 341 336 332 328 333 339 334 330 328 327 325 332 340 336 334 338 328 325 322 320 316 312 304 299 296 308 310 302 294 294 292 290 285 276 262 248 238 230 221 218 214 209 207 219 228 231 235 237 238 214 183 186 198 199 206 211 218 226 230 231 223 214 214 227 230 226 228 237 236 231 229 225 225 226 227
352 349 343 342 338 336 337 336 336 338 335 329 329 335 340 337 329 327 327 325 334 337 333 329 324 321 320 320 319 315 312 310 305 305 314 314 307 299 296 299 299 294 283 274 262 245 235 225 218 213 214 208 212 218 229 237 241 239 238 228 170 192 197 201 203 204 208 212 219 224 233 229 207 214 224 222 215 219 226 232 229 226 227 234 235
352 344 343 341 340 339 336 334 339 338 333 331 335 343 336 330 328 324 325 334 336 328 327 325 325 326 323 319 316 314 311 309 312 315 313 309 304 299 299 302 302 295 284 272 257 245 230 221 214 210 209 215 214 223 233 239 242 241 237 236 169 196 197 201 207 205 206 208 206 212 220 233 231 211 213 218 214 212 213 219 227 229 230 223 225
349 346 340 340 342 340 334 335 339 335 332 337 338 337 330 326 323 323 333 333 328 326 322 320 323 323 320 317 316 315 315 316 317 315 310 304 301 294 292 302 300 291 279 265 254 236 227 217 211 207 210 221 223 230 234 237 241 243 239 233 212 190 184 196 201 203 209 210 212 211 211 220 234 235 214 218 211 205 206 211 216 223 228 233 233
344 342 339 339 341 333 334 335 334 332 334 336 333 331 326 322 324 330 335 327 323 320 319 321 320 318 318 317 316 315 312 312 309 308 308 310 312 315 317 307 293 285 279 266 246 229 222 215 207 203 207 218 216 228 233 237 240 242 241 236 224 220 204 188 195 202 207 212 214 211 212 213 223 239 237 222 216 203 202 207 210 214 219 222 233
338 336 334 343 337 333 333 333 331 333 334 330 329 329 325 324 328 334 330 325 324 321 323 322 320 320 318 317 314 312 309 309 310 309 309 307 302 300 298 296 287 285 280 269 245 230 218 200 199 200 202 209 214 221 232 242 246 244 238 227 217 218 220 228 220 201 204 214 217 220 216 211 218 224 232 232 222 209 196 201 200 209 214 219 228
345 339 337 339 341 338 332 332 336 333 334 334 332 329 325 324 331 331 328 324 323 325 325 325 323 321 317 314 311 309 309 309 309 308 305 303 301 297 297 290 293 294 280 269 243 221 213 192 194 198 209 211 217 227 235 242 246 246 245 232 213 201 218 216 220 225 220 212 213 224 226 217 215 224 227 227 226 212 194 194 199 196 202 216 224
346 341 340 336 337 336 334 339 337 335 334 334 332 326 323 326 331 332 327 326 327 327 324 322 318 315 314 311 311 310 309 309 308 307 304 300 299 298 295 295 301 290 271 258 243 215 210 205 188 189 212 215 213 210 232 243 248 247 242 235 210 214 211 212 213 216 220 229 225 224 233 237 228 224 227 228 228 218 197 189 189 196 199 218 217
344 340 340 339 341 338 338 339 336 337 337 334 332 327 325 329 333 332 328 329 328 325 322 319 317 315 313 311 310 310 308 307 304 302 301 300 298 298 293 300 304 289 263 259 249 221 207 212 193 198 200 221 218 220 231 240 244 246 246 243 213 208 208 207 212 215 221 222 219 219 220 232 236 233 228 227 230 232 215 184 188 193 190 204 194
343 340 340 337 337 336 334 333 337 341 337 333 331 327 324 330 332 331 330 325 324 321 317 317 316 314 313 311 311 309 306 304 303 300 298 295 294 293 297 308 302 299 286 270 270 244 184 211 220 215 212 217 223 233 231 245 250 250 248 242 235 202 197 202 208 219 224 223 225 216 212 223 229 230 230 226 226 233 223 176 193 194 196 211 212
343 342 343 341 335 336 335 333 337 342 337 333 330 325 325 328 328 328 327 324 323 319 317 315 314 314 313 311 310 309 307 305 302 300 297 295 297 298 303 308 301 301 298 291 278 284 235 229 240 239 235 232 231 235 245 242 248 251 250 245 235 218 213 202 206 216 225 227 225 229 221 221 225 227 225 223 223 226 230 194 197 201 204 213 216
338 338 335 337 335 333 329 329 334 337 334 332 328 327 331 331 328 328 324 323 321 318 316 314 315 315 314 313 312 309 306 304 302 302 302 301 300 298 307 307 294 289 289 276 263 235 254 255 251 260 248 246 240 232 243 250 252 251 249 244 237 224 212 197 200 216 224 231 228 225 235 236 229 227 224 220 221 224 221 216 213 212 214 218 219
337 337 337 338 338 334 330 330 334 334 335 332 330 330 330 329 328 327 325 324 321 320 319 317 317 317 317 314 311 310 309 307 307 306 305 306 305 308 313 309 294 284 278 276 260 237 233 246 255 256 260 252 244 235 233 246 251 249 247 243 235 229 220 206 202 213 222 239 238 233 231 236 231 225 227 224 229 233 222 208 216 221 224 202 213
336 335 337 337 335 332 332 331 330 334 332 330 330 333 331 328 326 325 323 322 321 321 321 319 319 319 317 315 314 314 311 311 310 308 305 304 305 311 318 309 299 284 278 272 271 261 247 250 255 256 262 257 253 244 235 229 243 248 243 239 233 227 227 222 208 202 221 229 243 245 212 209 206 195 158 87 68 90 154 179 144 100 76 94 87
338 335 335 337 337 335 334 333 330 333 331 328 328 331 328 324 324 323 323 323 323 322 321 320 321 319 317 317 317 316 320 319 315 311 307 309 319 323 319 312 298 287 277 269 271 267 267 263 258 265 263 266 258 252 247 240 217 231 231 230 235 229 224 227 231 222 222 229 240 241 239 193 120 226 136 116 109 94 88 81 58 69 78 67 52
334 331 335 332 335 334 331 331 329 329 329 326 327 329 328 326 324 324 323 325 324 325 323 321 320 320 319 318 316 318 322 319 318 315 322 331 329 323 314 308 308 304 288 283 263 261 264 260 275 269 267 261 256 253 244 239 222 212 222 202 213 220 231 230 228 234 202 208 141 90 80 64 71 75 67 54 66 68 81 79 74 61 68 89 112
331 333 336 335 335 333 330 328 325 325 324 324 326 328 328 326 326 326 327 327 327 326 323 320 320 320 319 317 315 319 323 322 317 319 326 328 325 322 318 304 284 259 255 261 258 264 252 260 274 272 271 274 270 261 231 245 211 215 205 137 152 132 159 168 199 124 99 82 99 103 100 91 87 105 102 117 118 118 92 87 80 50 25 43 68
328 329 329 330 332 330 327 326 324 324 324 325 327 327 326 325 326 328 330 330 329 326 325 324 322 321 319 318 323 326 326 322 321 327 327 323 325 329 327 322 307 286 270 276 271 239 229 236 249 259 267 275 303 295 300 257 249 231 207 181 169 184 197 188 209 143 123 107 100 108 120 125 114 105 116 100 110 116 119 103 104 152 95 55 126
331 330 331 333 331 329 325 323 322 321 323 326 326 326 325 328 329 330 332 331 331 327 325 323 323 321 320 325 325 326 325 321 323 328 328 326 326 326 331 331 330 331 308 266 275 284 266 240 219 245 265 274 281 294 307 308 285 255 243 228 208 202 199 200 212 169 120 121 120 106 99 86 78 71 66 80 73 76 78 93 82 63 45 288 318